| time (UTC) | temp F | wind direction | speed MPH | gust MPH | rain 1hr in | rain 24hr in | rain mn in | humidity % | barometer mb |
| 20260505163523 | 64 | 258 | 5.0 | 9.0 | 0.00 | 0.41 | 0.41 | 75 | 1008.1 |
| 20260505162621 | 64 | 246 | 3.0 | 6.0 | 0.00 | 0.41 | 0.41 | 76 | 1008.1 |
| 20260505160821 | 64 | 264 | 3.0 | 5.0 | 0.00 | 0.41 | 0.41 | 76 | 1008.4 |
| 20260505153222 | 64 | 246 | 5.0 | 7.0 | 0.00 | 0.41 | 0.41 | 77 | 1008.5 |
| 20260505152321 | 64 | 261 | 5.0 | 6.0 | 0.00 | 0.41 | 0.41 | 76 | 1008.3 |
| 20260505151421 | 64 | 243 | 7.0 | 10.0 | 0.00 | 0.41 | 0.41 | 77 | 1008.1 |
| 20260505150523 | 64 | 237 | 8.0 | 12.0 | 0.00 | 0.41 | 0.41 | 77 | 1008.3 |
| 20260505140223 | 61 | 220 | 5.0 | 8.0 | 0.00 | 0.41 | 0.41 | 81 | 1007.9 |
| 20260505124121 | 57 | 203 | 7.0 | 13.0 | 0.00 | 0.41 | 0.41 | 87 | 1007.4 |
| 20260505123220 | 56 | 158 | 5.0 | 3.0 | 0.00 | 0.41 | 0.41 | 87 | 1007.2 |
| 20260505122322 | 56 | 178 | 2.0 | 3.0 | 0.00 | 0.41 | 0.41 | 87 | 1007.2 |
| 20260505121422 | 56 | 181 | 3.0 | 7.0 | 0.00 | 0.41 | 0.41 | 88 | 1007.0 |
| 20260505120521 | 55 | 170 | 5.0 | 6.0 | 0.00 | 0.41 | 0.41 | 89 | 1007.1 |
| 20260505115620 | 55 | 149 | 3.0 | 5.0 | 0.00 | 0.41 | 0.41 | 89 | 1007.2 |
| 20260505114721 | 55 | 150 | 1.0 | 3.0 | 0.00 | 0.41 | 0.41 | 89 | 1007.2 |
| 20260505113820 | 55 | 213 | 2.0 | 3.0 | 0.00 | 0.41 | 0.41 | 89 | 1007.3 |
| 20260505112920 | 55 | 200 | 2.0 | 3.0 | 0.00 | 0.41 | 0.41 | 88 | 1007.2 |
| 20260505112026 | 55 | 172 | 2.0 | 3.0 | 0.00 | 0.41 | 0.41 | 88 | 1007.1 |
| 20260505111124 | 55 | 228 | 1.0 | 3.0 | 0.00 | 0.41 | 0.41 | 88 | 1007.0 |
| 20260505110223 | 55 | 139 | 2.0 | 6.0 | 0.00 | 0.41 | 0.41 | 88 | 1006.6 |
| 20260505100857 | 55 | 141 | 7.0 | 12.0 | 0.02 | 0.41 | 0.41 | 90 | 1005.4 |
| 20260505100821 | 55 | 141 | 7.0 | 12.0 | 0.02 | 0.41 | 0.41 | 90 | 1005.4 |
| 20260505095924 | 55 | 151 | 8.0 | 12.0 | 0.02 | 0.41 | 0.41 | 90 | 1005.7 |
| 20260505095021 | 55 | 118 | 8.0 | 13.0 | 0.01 | 0.40 | 0.40 | 90 | 1005.2 |
| 20260505094122 | 55 | 121 | 7.0 | 12.0 | 0.02 | 0.40 | 0.40 | 90 | 1006.1 |
| 20260505093222 | 55 | 139 | 6.0 | 7.0 | 0.04 | 0.40 | 0.40 | 90 | 1006.4 |
| 20260505085621 | 55 | 160 | 3.0 | 3.0 | 0.19 | 0.39 | 0.39 | 90 | 1007.9 |
| 20260505084722 | 55 | 252 | 1.0 | 3.0 | 0.21 | 0.38 | 0.38 | 90 | 1008.1 |
| 20260505083821 | 55 | 282 | 3.0 | 3.0 | 0.22 | 0.37 | 0.37 | 90 | 1008.2 |
| 20260505082921 | 55 | 286 | 3.0 | 6.0 | 0.24 | 0.35 | 0.35 | 90 | 1008.1 |
| 20260505082021 | 55 | 296 | 2.0 | 3.0 | 0.21 | 0.30 | 0.30 | 90 | 1007.9 |
| 20260505081121 | 55 | 296 | 1.0 | 2.0 | 0.19 | 0.26 | 0.26 | 90 | 1007.4 |
| 20260505080221 | 55 | 291 | 1.0 | 2.0 | 0.17 | 0.22 | 0.22 | 89 | 1007.3 |
| 20260505075321 | 55 | 311 | 1.0 | 2.0 | 0.14 | 0.18 | 0.18 | 89 | 1007.4 |
| 20260505074421 | 55 | 303 | 3.0 | 3.0 | 0.14 | 0.16 | 0.16 | 89 | 1007.4 |
| 20260505073521 | 55 | 303 | 1.0 | 1.0 | 0.14 | 0.14 | 0.14 | 88 | 1007.0 |
| 20260505072620 | 55 | 302 | 0.0 | 0.0 | 0.11 | 0.11 | 0.11 | 88 | 1006.8 |
| 20260505071722 | 56 | 302 | 3.0 | 5.0 | 0.08 | 0.08 | 0.08 | 87 | 1007.5 |
| 20260505065920 | 56 | 301 | 7.0 | 8.0 | 0.05 | 0.05 | 0.05 | 86 | 1007.6 |
| 20260505065021 | 57 | 304 | 7.0 | 8.0 | 0.04 | 0.04 | 0.04 | 84 | 1007.6 |
| 20260505064122 | 59 | 303 | 9.0 | 12.0 | 0.01 | 0.01 | 0.01 | 79 | 1007.7 |
| 20260505063220 | 63 | 303 | 14.0 | 20.0 | 0.00 | 0.00 | 0.00 | 73 | 1007.8 |
| 20260505062632 | 65 | 282 | 16.0 | 22.0 | 0.00 | 0.00 | 0.00 | 63 | 1007.0 |
| 20260505062320 | 65 | 282 | 16.0 | 22.0 | 0.00 | 0.00 | 0.00 | 63 | 1007.0 |
| 20260505061422 | 65 | 275 | 6.0 | 8.0 | 0.00 | 0.00 | 0.00 | 61 | 1006.5 |
| 20260505060520 | 66 | 261 | 5.0 | 7.0 | 0.00 | 0.00 | 0.00 | 59 | 1005.8 |
| 20260505055620 | 66 | 232 | 6.0 | 12.0 | 0.00 | 0.00 | 0.00 | 59 | 1005.5 |
| 20260505054722 | 66 | 236 | 9.0 | 14.0 | 0.00 | 0.00 | 0.00 | 58 | 1005.4 |
| 20260505053822 | 67 | 215 | 7.0 | 12.0 | 0.00 | 0.00 | 0.00 | 58 | 1005.1 |
| 20260505052958 | 67 | 205 | 7.0 | 10.0 | 0.00 | 0.00 | 0.00 | 57 | 1004.9 |
| 20260505052021 | 67 | 235 | 7.0 | 12.0 | 0.00 | 0.00 | 0.00 | 56 | 1004.8 |
| 20260505051122 | 68 | 196 | 9.0 | 14.0 | 0.00 | 0.00 | 0.00 | 55 | 1004.4 |
| 20260505050220 | 68 | 197 | 8.0 | 13.0 | 0.00 | 0.00 | 0.00 | 56 | 1004.4 |
| 20260505041721 | 68 | 183 | 8.0 | 13.0 | 0.00 | 0.00 | 0.00 | 57 | 1004.4 |
| 20260505040820 | 67 | 214 | 8.0 | 12.0 | 0.00 | 0.00 | 0.00 | 58 | 1004.5 |
| 20260505035920 | 67 | 165 | 8.0 | 10.0 | 0.00 | 0.00 | 0.00 | 59 | 1004.5 |
| 20260505035021 | 67 | 178 | 7.0 | 10.0 | 0.00 | 0.00 | 0.00 | 59 | 1004.8 |
| 20260505034122 | 67 | 183 | 6.0 | 12.0 | 0.00 | 0.00 | 0.00 | 59 | 1005.0 |
| 20260505033220 | 67 | 164 | 5.0 | 7.0 | 0.00 | 0.00 | 0.00 | 59 | 1005.0 |
| 20260505032321 | 67 | 164 | 5.0 | 5.0 | 0.00 | 0.00 | 0.00 | 59 | 1005.0 |
| 20260505031422 | 67 | 163 | 7.0 | 7.0 | 0.00 | 0.00 | 0.00 | 58 | 1005.0 |
| 20260505030521 | 67 | 152 | 5.0 | 10.0 | 0.00 | 0.00 | 0.00 | 59 | 1005.2 |
| 20260505025621 | 67 | 153 | 3.0 | 6.0 | 0.00 | 0.00 | 0.00 | 59 | 1005.2 |
| 20260505024721 | 67 | 176 | 3.0 | 5.0 | 0.00 | 0.00 | 0.00 | 59 | 1005.2 |
| 20260505023820 | 67 | 152 | 3.0 | 3.0 | 0.00 | 0.00 | 0.00 | 59 | 1005.2 |
| 20260505022925 | 67 | 177 | 5.0 | 6.0 | 0.00 | 0.00 | 0.00 | 58 | 1005.1 |
| 20260505022023 | 67 | 150 | 5.0 | 7.0 | 0.00 | 0.00 | 0.00 | 58 | 1005.0 |
| 20260505021120 | 67 | 175 | 5.0 | 6.0 | 0.00 | 0.00 | 0.00 | 58 | 1005.0 |
| 20260505020722 | 68 | 151 | 3.0 | 5.0 | 0.00 | 0.00 | 0.00 | 58 | 1004.8 |
| 20260505020221 | 68 | 151 | 3.0 | 5.0 | 0.00 | 0.00 | 0.00 | 58 | 1004.8 |
| 20260505015321 | 68 | 154 | 3.0 | 5.0 | 0.00 | 0.00 | 0.00 | 58 | 1004.6 |
| 20260505014421 | 68 | 138 | 3.0 | 6.0 | 0.00 | 0.00 | 0.00 | 58 | 1004.5 |
| 20260505013521 | 68 | 141 | 2.0 | 3.0 | 0.00 | 0.00 | 0.00 | 57 | 1004.4 |
| 20260505012621 | 68 | 149 | 3.0 | 3.0 | 0.00 | 0.00 | 0.00 | 56 | 1004.4 |
| 20260505011721 | 69 | 157 | 5.0 | 7.0 | 0.00 | 0.00 | 0.00 | 56 | 1004.4 |
| 20260505010821 | 69 | 138 | 5.0 | 7.0 | 0.00 | 0.00 | 0.00 | 55 | 1004.3 |
| 20260505005920 | 69 | 207 | 6.0 | 13.0 | 0.00 | 0.00 | 0.00 | 55 | 1004.1 |
| 20260505005023 | 70 | 178 | 5.0 | 8.0 | 0.00 | 0.00 | 0.00 | 55 | 1004.1 |
| 20260505004120 | 70 | 186 | 5.0 | 7.0 | 0.00 | 0.00 | 0.00 | 54 | 1004.1 |
| 20260505002320 | 72 | 200 | 9.0 | 10.0 | 0.00 | 0.00 | 0.00 | 51 | 1004.0 |
| 20260505001421 | 72 | 181 | 7.0 | 10.0 | 0.00 | 0.00 | 0.00 | 51 | 1004.0 |
| 20260505000521 | 72 | 170 | 7.0 | 9.0 | 0.00 | 0.00 | 0.00 | 51 | 1004.2 |
| 20260504235621 | 72 | 224 | 8.0 | 14.0 | 0.00 | 0.00 | 0.00 | 50 | 1004.3 |
| 20260504234722 | 73 | 209 | 6.0 | 5.0 | 0.00 | 0.00 | 0.00 | 50 | 1004.3 |
| 20260504233820 | 72 | 207 | 6.0 | 10.0 | 0.00 | 0.00 | 0.00 | 50 | 1004.4 |
| 20260504232924 | 72 | 170 | 6.0 | 9.0 | 0.00 | 0.00 | 0.00 | 52 | 1004.6 |
| 20260504232023 | 71 | 179 | 6.0 | 12.0 | 0.00 | 0.00 | 0.00 | 55 | 1004.7 |
| 20260504231122 | 71 | 161 | 5.0 | 7.0 | 0.00 | 0.00 | 0.00 | 55 | 1004.9 |
| 20260504230221 | 71 | 190 | 6.0 | 9.0 | 0.00 | 0.00 | 0.00 | 54 | 1005.2 |
| 20260504225321 | 71 | 193 | 6.0 | 8.0 | 0.00 | 0.00 | 0.00 | 55 | 1005.1 |
| 20260504224422 | 71 | 166 | 8.0 | 12.0 | 0.00 | 0.00 | 0.00 | 55 | 1005.1 |
| 20260504223521 | 71 | 173 | 6.0 | 10.0 | 0.00 | 0.00 | 0.00 | 55 | 1005.0 |
| 20260504222621 | 71 | 142 | 7.0 | 7.0 | 0.00 | 0.00 | 0.00 | 54 | 1005.3 |
| 20260504221721 | 70 | 169 | 5.0 | 7.0 | 0.00 | 0.00 | 0.00 | 57 | 1005.4 |
| 20260504220822 | 69 | 186 | 3.0 | 5.0 | 0.00 | 0.00 | 0.00 | 59 | 1005.4 |
| 20260504215920 | 69 | 206 | 6.0 | 8.0 | 0.00 | 0.00 | 0.00 | 60 | 1005.5 |
| 20260504215022 | 69 | 194 | 7.0 | 9.0 | 0.00 | 0.00 | 0.00 | 60 | 1005.5 |
| 20260504214120 | 68 | 157 | 5.0 | 9.0 | 0.00 | 0.00 | 0.00 | 62 | 1005.4 |
| 20260504213221 | 68 | 193 | 7.0 | 10.0 | 0.00 | 0.00 | 0.00 | 63 | 1005.8 |
| 20260504212321 | 67 | 153 | 7.0 | 12.0 | 0.00 | 0.00 | 0.00 | 64 | 1005.7 |
| 20260504211421 | 66 | 146 | 6.0 | 8.0 | 0.00 | 0.00 | 0.00 | 67 | 1005.8 |
| 20260504210521 | 66 | 162 | 3.0 | 5.0 | 0.00 | 0.00 | 0.00 | 67 | 1005.9 |
| 20260504205621 | 66 | 163 | 5.0 | 6.0 | 0.00 | 0.00 | 0.00 | 66 | 1005.9 |
| 20260504204721 | 67 | 217 | 7.0 | 9.0 | 0.00 | 0.00 | 0.00 | 62 | 1006.5 |
| 20260504203822 | 68 | 219 | 6.0 | 9.0 | 0.00 | 0.00 | 0.00 | 59 | 1006.4 |
| 20260504202920 | 67 | 247 | 7.0 | 13.0 | 0.00 | 0.00 | 0.00 | 59 | 1005.8 |
| 20260504202020 | 68 | 272 | 9.0 | 20.0 | 0.00 | 0.00 | 0.00 | 58 | 1006.4 |
| 20260504201122 | 70 | 283 | 7.0 | 14.0 | 0.00 | 0.00 | 0.00 | 56 | 1006.4 |
| 20260504200220 | 69 | 260 | 5.0 | 8.0 | 0.00 | 0.00 | 0.00 | 55 | 1006.3 |
| 20260504195320 | 68 | 256 | 8.0 | 9.0 | 0.00 | 0.00 | 0.00 | 55 | 1006.8 |
| 20260504194422 | 68 | 271 | 7.0 | 14.0 | 0.00 | 0.00 | 0.00 | 58 | 1007.3 |
| 20260504193521 | 69 | 254 | 9.0 | 20.0 | 0.00 | 0.00 | 0.00 | 60 | 1007.4 |
| 20260504192621 | 69 | 252 | 8.0 | 8.0 | 0.00 | 0.00 | 0.00 | 60 | 1007.4 |
| 20260504191722 | 69 | 228 | 9.0 | 13.0 | 0.00 | 0.00 | 0.00 | 61 | 1007.4 |
| 20260504190820 | 69 | 202 | 9.0 | 16.0 | 0.00 | 0.00 | 0.00 | 60 | 1007.6 |
| 20260504185920 | 69 | 195 | 8.0 | 20.0 | 0.00 | 0.00 | 0.00 | 60 | 1007.6 |
| 20260504185020 | 69 | 214 | 9.0 | 16.0 | 0.00 | 0.00 | 0.00 | 59 | 1007.4 |
| 20260504184217 | 69 | 222 | 8.0 | 10.0 | 0.00 | 0.00 | 0.00 | 60 | 1007.2 |
| 20260504182321 | 69 | 193 | 10.0 | 15.0 | 0.00 | 0.00 | 0.00 | 61 | 1007.5 |
| 20260504181420 | 69 | 180 | 12.0 | 21.0 | 0.00 | 0.00 | 0.00 | 61 | 1007.3 |
| 20260504180521 | 69 | 212 | 6.0 | 8.0 | 0.00 | 0.00 | 0.00 | 62 | 1007.6 |
| 20260504175619 | 69 | 221 | 8.0 | 12.0 | 0.00 | 0.00 | 0.00 | 61 | 1007.6 |
| 20260504174721 | 69 | 211 | 9.0 | 20.0 | 0.00 | 0.00 | 0.00 | 60 | 1007.7 |
| 20260504173820 | 69 | 242 | 9.0 | 16.0 | 0.00 | 0.00 | 0.00 | 60 | 1007.5 |
| 20260504172920 | 70 | 209 | 12.0 | 20.0 | 0.00 | 0.00 | 0.00 | 59 | 1007.4 |
| 20260504172021 | 70 | 259 | 8.0 | 14.0 | 0.00 | 0.00 | 0.00 | 61 | 1007.4 |
| 20260504171120 | 69 | 218 | 10.0 | 16.0 | 0.00 | 0.00 | 0.00 | 59 | 1007.2 |
| 20260504170223 | 70 | 207 | 9.0 | 13.0 | 0.00 | 0.00 | 0.00 | 59 | 1007.6 |